Location: Newark
(52.3500°N, 175.9667°E)
Time: 21:41:55
(UTC+00:00)

Altair - Pass Details

Date: 02 May 2021
Orbit: 1501 x 1683 km, 47.2° (Epoch: 05 May)

Event Time Altitude Azimuth Distance (km) Brightness Sun altitude
Rises 15:49:06 0° 241° (WSW) 4,922 - -7.7°
Exits shadow 15:51:46 - 238° (WSW) 4,100 9.0 -7.3°
Reaches altitude 10° 15:52:21 10° 237° (WSW) 3,924 8.9 -7.3°
Maximum altitude 16:02:06 58° 162° (SSE) 1,865 7.9 -6.1°
Drops below altitude 10° 16:11:32 10° 87° (E) 3,808 10.7 -4.9°
Sets 16:14:38 0° 84° (E) 4,769 11.4 -4.5°
